SCP
0 0 0 0 0 0 0 0 0 0 0 0 0 0 0 0 0 0 0 0 0 0 0 0 0 0 0 0 0 0 0 0 0 0 0 0 0 0 0 0 0 0 0
0 0 0 0 0 0 0 0 0 0 0 0 0 0 0 0 0 0 0 0 0 0 0 0 0 0 0 0 0 0 0 0 0 0 0 0 0 0 0 0 0 0 0
0 0 0 0 0 0 0 0 0 0 0 0 0 0 0 0 0 0 0 0 0 0 0 0 0 0 0 0 0 0 0 0 0 0 0 0 0 0 0 0 0 0 0
0 0 0 0 0 0 0 0 0 0 0 0 0 0 0 0 0 0 0 0 0 0 0 0 0 0 0 0 0 0 0 0 0 0 0 0 0 0 0 0 0 0 0
0 0 0 0 0 0 0 0 0 0 0 0 0 0 0 0 0 0 0 0 0 0 0 0 0 0 0 0 0 0 0 0 0 0 0 0 0 0 0 0 0 0 0
0 0 0 0 0 0 0 0 0 0 0 0 0 0 0 0 0 0 0 0 0 0 0 0 0 0 0 0 0 0 0 0 0 0 0 0 0 0 0 0 0 0 0
0 0 0 0 0 0 0 0 0 0 0 0 0 0 0 0 0 0 0 0 0 0 0 0 0 0 0 0 0 0 0 0 0 0 0 0 0 0 0 0 0 0 0
0 0 0 0 0 0 0 0 0 0 0 0 0 0 0 0 0 0 0 0 0 0 0 0 0 0 0 0 0 0 0 0 0 0 0 0 0 0 0 0 0 0 0
0 0 0 0 0 0 0 0 0 0 0 0 0 0 0 0 0 0 0 0 0 0 0 0 0 0 0 0 0 0 0 0 0 0 0 0 0 0 0 0 0 0 0
0 0 0 0 0 0 0 0 0 0 0 0 0 0 0 0 0 0 0 0 0 0 0 0 0 0 0 0 0 0 0 0 0 0 0 0 0 0 0 0 0 0 0
0 0 0 0 0 0 0 0 0 0 0 0 0 0 0 0 0 0 0 0 0 0 0 0 0 0 0 0 0 0 0 0 0 0 0 0 0 0 0 0 0 0 0
0 0 0 0 0 0 0 0 0 0 0 0 0 0 0 0 0 0 0 0 0 0 0 0 0 0 0 0 0 0 0 0 0 0 0 0 0 0 0 0 0 0 0
0 0 0 0 0 0 0 0 0 0 0 0 0 0 0 0 0 0 0 0 0 0 0 0 0 0 0 0 0 0 0 0 0 0 0 0 0 0 0 0 0 0 0
0 0 0 0 0 0 0 0 0 0 0 0 0 0 0 0 0 0 0 0 0 0 0 0 0 0 0 0 0 0 0 0 0 0 0 0 0 0 0 0 0 0 0
0 0 0 0 0 0 0 0 0 0 0 0 0 0 0 0 0 0 0 0 0 0 0 0 0 0 0 0 0 0 0 0 0 0 0 0 0 0 0 0 0 0 0
0 0 0 0 0 0 0 0 0 0 0 0 0 0 0 0 0 0 0 0 0 0 0 0 0 0 0 0 0 0 0 0 0 0 0 0 0 0 0 0 0 0 0
0 0 0 0 0 0 0 0 0 0 0 0 0 0 0 0 0 0 0 0 0 0 0 0 0 0 0 0 0 0 0 0 0 0 0 0 0 0 0 0 0 0 0
0 0 0 0 0 0 0 0 0 0 0 0 0 0 0 0 0 0 0 0 0 0 0 0 0 0 0 0 0 0 0 0 0 0 0 0 0 0 0 0 0 0 0
0 0 0 0 0 0 0 0 0 0 0 0 0 0 0 0 0 0 0 0 0 0 0 0 0 0 0 0 0 0 0 0 0 0 0 0 0 0 0 0 0 0 0
0 0 0 0 0 0 0 0 0 0 0 0 0 0 0 0 0 0 0 0 0 0 0 0 0 0 0 0 0 0 0 0 0 0 0 0 0 0 0 0 0 0 0
0 0 0 0 0 0 0 0 0 0 0 0 0 0 0 0 0 0 0 0 0 0 0 0 0 0 0 0 0 0 0 0 0 0 0 0 0 0 0 0 0 0 0
0 0 0 0 0 0 0 0 0 0 0 0 0 0 0 0 0 0 0 0 0 0 0 0 0 0 0 0 0 0 0 0 0 0 0 0 0 0 0 0 0 0 0
0 0 0 0 0 0 0 0 0 0 0 0 0 0 0 0 0 0 0 0 0 0 0 0 0 0 0 0 0 0 0 0 0 0 0 0 0 0 0 0 0 0 0
0 0 0 0 0 0 0 0 0 0 0 0 0 0 0 0 0 0 0 0 0 0 0 0 0 0 0 0 0 0 0 0 0 0 0 0 0 0 0 0 0 0 0
0 0 0 0 0 0 0 0 0 0 0 0 0 0 0 0 0 0 0 0 0 0 0 0 0 0 0 0 0 0 0 0 0 0 0 0 0 0 0 0 0 0 0
0 0 0 0 0 0 0 0 0 0 0 0 0 0 0 0 0 0 0 0 0 0 0 0 0 0 0 0 0 0 0 0 0 0 0 0 0 0 0 0 0 0 0
Wind_Speed
6 7 8 8 8 8 8 8 8 9 8 8 8 8 9 9 9 8 8 8 8 8 8 8 8 9 9 9 9 9 9 9 8 8 8 8 8 8 8 7 7 5 7
8 8 9 8 8 8 8 8 8 8 8 8 8 8 8 8 8 8 8 7 7 8 8 8 7 8 8 8 8 8 8 8 7 5 5 5 6 7 7 8 7 4 6
8 9 8 8 8 8 8 7 7 7 7 7 7 7 7 7 7 7 7 7 7 7 7 8 7 7 7 7 7 7 7 6 6 5 4 2 3 6 6 6 6 6 5
8 8 7 8 8 7 7 7 7 7 6 6 6 7 6 6 6 6 7 7 6 6 7 7 6 6 7 7 7 7 6 6 6 6 3 2 3 5 5 5 5 5 5
8 8 8 9 8 7 7 7 6 7 6 6 6 6 6 6 6 6 6 7 6 6 6 6 6 5 6 6 6 6 6 7 7 6 3 3 3 4 5 5 5 4 4
7 7 8 8 7 6 6 6 6 6 5 5 5 5 5 5 5 5 6 6 6 5 5 5 5 5 5 5 5 5 6 7 7 4 4 4 3 4 4 4 4 4 4
7 7 7 8 7 6 5 5 4 4 4 4 4 4 5 5 5 5 5 5 5 4 4 4 5 5 4 4 4 4 6 7 4 3 3 3 3 4 4 4 4 4 4
6 7 6 7 6 5 5 4 3 4 4 4 4 3 4 4 4 4 4 4 4 4 3 3 4 4 4 4 4 4 6 7 5 3 2 2 3 3 3 4 4 4 4
6 6 5 4 4 4 4 3 3 2 3 3 3 3 3 3 3 3 4 4 4 4 4 3 3 3 3 3 4 4 6 7 4 2 2 1 3 3 3 3 3 4 4
5 5 4 3 2 2 2 2 2 2 2 2 3 3 3 2 2 2 3 3 3 4 4 3 3 3 3 3 4 5 6 6 3 2 1 1 2 2 2 3 3 4 4
3 3 3 2 2 1 1 1 2 1 1 1 1 2 2 0 0 0 1 2 3 3 4 3 3 4 4 4 4 6 5 2 2 1 1 1 1 2 3 2 3 4 4
2 2 2 2 1 1 1 1 1 1 1 1 1 0 0 0 1 1 1 2 2 3 4 4 4 4 3 2 3 5 2 2 1 1 1 1 1 2 3 3 3 4 4
2 2 2 1 1 1 1 1 0 0 1 1 0 0 0 0 0 0 0 1 1 2 2 3 3 2 2 2 2 2 2 2 1 1 1 2 2 3 4 4 4 4 4
3 2 1 1 1 0 0 1 1 1 1 1 1 1 0 0 0 0 0 1 1 1 1 1 2 2 2 2 2 2 2 1 1 1 1 2 3 4 5 5 5 6 5
2 2 2 1 1 0 1 1 1 1 1 1 0 1 1 0 1 1 1 1 1 1 1 2 2 2 2 2 2 2 2 2 2 1 1 2 3 4 5 5 6 6 6
2 2 2 1 1 0 1 1 1 1 1 1 1 1 1 0 0 1 1 1 1 1 1 2 2 2 2 2 2 2 2 2 2 2 1 2 3 4 5 5 6 6 7
2 2 2 1 1 0 1 1 1 1 1 1 1 1 1 1 1 1 1 1 1 2 2 2 2 2 2 2 2 2 2 2 2 2 2 1 1 2 4 5 6 6 7
2 2 2 1 1 1 1 1 1 1 1 1 1 1 0 1 1 1 1 1 1 1 1 2 2 2 1 2 2 2 2 2 2 2 2 1 1 1 2 4 6 7 7
2 2 2 2 1 1 1 1 1 1 1 1 0 1 1 1 1 1 1 1 1 1 1 2 1 1 2 2 2 2 2 2 2 2 2 1 1 1 1 2 4 6 7
2 2 2 2 1 1 1 1 1 1 1 0 0 1 1 1 1 1 1 2 1 1 1 1 2 2 1 2 3 3 2 3 2 2 2 1 1 1 1 1 1 3 6
2 2 1 2 1 1 1 1 1 1 1 1 1 1 1 1 1 1 2 2 2 1 2 2 2 1 1 1 1 2 3 3 2 2 1 1 1 1 1 1 1 1 2
2 1 1 1 1 1 1 1 1 1 1 1 1 1 1 1 2 2 2 2 2 2 2 2 1 1 1 1 1 1 2 2 1 2 1 1 1 1 1 1 1 1 1
2 2 2 1 1 1 1 1 0 0 0 0 1 1 1 2 2 2 2 2 2 2 2 2 2 1 2 2 1 1 1 2 2 2 2 2 2 1 1 1 1 1 1
2 2 2 2 2 1 1 1 1 2 2 2 1 1 2 1 1 2 2 2 2 1 1 2 2 2 2 2 2 1 1 1 1 3 3 2 2 2 2 2 2 2 1
2 1 1 1 1 1 1 1 1 2 1 1 1 1 1 1 1 2 2 2 2 1 2 2 2 2 2 2 2 1 2 2 2 2 4 3 2 2 2 2 2 1 1
2 1 1 1 1 1 1 1 1 2 1 1 1 1 2 1 1 2 2 2 2 2 2 2 2 2 2 3 2 2 2 2 2 2 2 3 3 3 3 2 2 1 1
Wind_Direction
108 112 110 100 94 85 78 73 68 63 58 54 53 51 51 49 47 46 46 45 49 50 51 52 49 47 46 48 47 46 45 44 43 45 48 53 59 60 56 52 58 63 64
117 118 114 103 98 92 82 75 70 66 59 54 51 52 52 49 45 45 44 44 48 51 53 50 47 45 45 46 47 46 43 41 36 32 33 48 63 62 56 53 54 62 61
114 118 116 105 98 92 85 77 71 68 61 54 50 51 50 48 43 43 41 43 44 47 50 48 47 44 46 45 44 41 38 33 20 3 2 18 73 65 57 52 54 56 52
108 109 111 106 99 92 86 77 70 65 58 53 50 48 44 42 39 40 40 36 37 43 44 44 44 46 47 46 41 34 26 13 355 347 350 27 58 66 58 50 49 49 46
108 108 110 108 100 94 87 78 70 62 54 47 48 45 42 37 37 39 35 32 30 36 38 34 41 46 45 41 35 26 12 355 344 343 352 33 51 58 54 47 42 46 51
111 107 112 113 106 98 89 79 70 62 53 47 47 45 41 36 35 37 34 30 26 28 32 32 35 35 37 34 26 16 358 343 336 341 5 35 46 47 43 39 36 38 47
110 108 116 113 109 101 92 83 69 58 53 51 48 45 39 34 34 32 30 25 22 24 30 27 29 22 21 21 14 2 348 336 327 347 13 31 39 42 35 34 29 33 33
106 110 120 118 114 108 98 85 69 57 52 50 41 40 32 28 31 35 30 25 22 19 19 17 18 10 3 5 358 346 335 328 329 345 15 28 28 27 25 25 25 19 22
103 105 117 128 130 125 112 95 79 58 46 38 31 31 26 21 23 31 25 20 18 9 3 3 357 350 345 344 342 334 321 318 322 315 355 29 16 12 15 16 11 8 6
94 100 111 118 120 129 129 117 96 79 49 24 20 21 17 14 15 24 20 16 9 1 355 345 338 331 322 319 320 313 309 309 303 308 340 21 6 351 349 356 351 345 349
92 90 100 106 100 104 135 136 123 112 86 15 2 352 357 331 290 28 14 10 356 348 343 332 325 318 310 298 294 294 300 288 297 311 342 9 323 324 321 329 331 330 332
126 108 93 86 102 112 136 125 163 180 175 207 204 182 259 325 336 1 331 332 329 328 321 308 305 304 303 278 275 284 285 287 297 304 312 303 287 301 298 306 311 313 318
125 102 97 103 100 149 156 160 184 191 196 228 213 213 228 143 300 4 241 287 282 308 304 303 294 285 285 287 279 269 276 289 284 287 291 301 290 292 289 292 299 301 300
134 133 111 113 90 288 196 197 187 196 215 216 191 252 245 164 261 243 224 257 262 273 284 286 278 273 278 282 283 286 294 294 278 253 228 290 286 287 281 288 294 297 294
155 151 146 145 152 328 270 238 212 203 232 228 196 244 274 203 242 257 256 263 282 289 280 283 289 290 278 278 282 286 293 295 289 278 246 266 274 283 282 287 292 297 296
172 152 153 154 169 206 275 246 230 203 219 217 203 240 279 245 250 269 260 283 290 290 278 276 281 284 269 267 280 285 285 292 289 279 241 248 261 278 277 285 290 295 300
180 160 160 168 152 220 262 254 244 222 217 198 195 211 279 295 260 275 280 279 286 291 288 291 289 295 283 283 283 285 283 282 279 273 266 232 237 274 285 293 295 295 296
179 170 161 175 175 217 258 275 269 254 238 225 195 189 238 284 279 280 277 276 283 291 290 289 290 298 290 291 291 291 287 275 273 264 260 242 241 251 280 293 298 297 297
176 174 158 162 175 208 240 261 259 249 250 231 205 189 210 238 263 269 265 270 284 289 281 289 301 299 297 300 292 281 279 268 263 257 251 233 229 221 222 288 295 299 300
164 162 166 159 168 192 207 239 269 255 258 252 230 224 225 225 249 265 263 271 273 267 272 273 274 281 271 273 289 290 278 266 254 243 252 242 233 219 225 252 269 295 303
153 154 176 169 178 173 192 223 244 242 253 266 255 252 240 231 246 254 268 275 268 252 250 252 256 274 286 284 296 302 279 256 232 235 249 262 263 237 235 222 237 259 288
159 156 179 190 183 191 205 217 235 236 240 235 252 283 264 252 247 250 244 258 264 255 250 245 255 252 265 253 215 288 300 307 291 255 232 240 252 254 265 265 234 265 283
175 189 202 209 195 200 203 177 252 285 300 276 266 258 260 261 259 254 251 258 261 251 225 216 224 227 248 258 226 195 212 270 309 281 250 238 242 245 256 257 244 253 275
189 193 196 194 188 200 190 181 207 224 229 241 237 248 268 256 261 259 263 267 265 248 217 224 215 232 241 245 259 251 241 220 238 302 288 262 250 253 259 277 262 246 248
165 172 190 173 184 210 210 201 224 244 244 258 257 258 277 268 251 267 266 261 262 244 220 230 235 246 249 241 240 248 259 264 240 228 276 294 301 273 263 268 262 251 251
136 149 171 165 182 206 228 219 233 240 232 236 256 258 277 277 257 249 259 252 254 243 221 225 230 237 255 255 247 240 227 227 224 222 251 285 291 291 291 277 256 244 244